Regional Weather Roundup
Issued by NWS Pendleton, OR

Home | Current Version | Previous Version | Text Only | Print | Product List | Glossary On
Versions: 1 2 3 4 5 6 7 8 9 10 11 12 13 14 15 16 17 18 19 20 21 22 23 24 25 26 27 28 29 30 31 32 33 34 35 36 37 38 39 40 41 42 43 44 45 46 47 48 49 50
000
ASUS46 KPDT 061210
RWRPDT
PENDLETON REGIONAL WEATHER ROUNDUP
NATIONAL WEATHER SERVICE PENDLETON OREGON
400 AM PST FRI MAR 6 2015

NOTE: FAIR INDICATES FEW OR NO CLOUDS BELOW 12,000 FEET WITH NO
SIGNIFICANT WEATHER AND/OR OBSTRUCTIONS TO VISIBILITY.

# INDICATES UNOFFICIAL STATION AND DATA

WAZ520-061310-
EAST SLOPES OF WASHINGTON CASCADES

CITY            SKY/WX      TMP DP  RH  WIND    PRES   REMARKS
#BUMPING DAM    N/A         29  N/A N/A CALM    N/A
#CLE ELUM HS    N/A         30  26  85  CALM    30.28S
#CLE ELUM LAKE  N/A         39  30  70  CALM    30.34S
#CLIFFDEL 2NW   N/A         30  25  81  CALM    N/A
#EASTON DOT     N/A         34  30  85  CALM    N/A
#GLENWOOD       N/A         27  26  96  CALM    30.41S
#MANASTASH CYN  N/A         33  26  75  CALM    30.28S
#NELSON         N/A         31  27  85  CALM    30.40S
#NELSON 3SW     N/A         34  31  89  CALM    30.58F
#NILE           N/A         31  27  85  W1      29.67R
#PEOH POINT     N/A         41  24  50  SW8     N/A
#RONALD 2NW     N/A         37  24  59  NE1     30.17S
#SNOWDEN        N/A         34  18  51  CALM    N/A
#TEANAWAY 4NE   N/A         31  26  81  N1      N/A
#TROUT LAKE 1NE N/A         30  27  88  W1      30.39S
$$

WAZ521-061310-
SIMCOE HIGHLANDS

CITY            SKY/WX      TMP DP  RH  WIND    PRES   REMARKS
#BICKLETON HS   N/A         36  18  47  CALM    N/A
#SATUS PASS DOT N/A         35  21  56  CALM    N/A
#CENTERVILLE 4W N/A         38  30  73  N5      30.07S
#CENTERVILLE 1SWN/A         30  26  85  CALM    30.34F
#GOLDENDALE     N/A         31  27  85  E1      N/A
#GOLDENDALE 1NE N/A         31  19  61  N3      N/A
#GOLDENDALE 5WNWN/A         N/A N/A N/A SW8     30.33F
#GOODNOE HILLS  N/A         43  32  65  W3      N/A
#LYLE 6NE       N/A         41  32  70  CALM    30.34F
$$

WAZ026-061310-
KITTITAS VALLEY

CITY            SKY/WX      TMP DP  RH  WIND    PRES   REMARKS
ELLENSBURG AP   MOCLDY      34  27  75  E3      30.34S
6HR MIN TEMP:   33; 6HR MAX TEMP:   48;

#ELLENSBURG CWU N/A         35  28  75  CALM    30.32S
#ELLENSBURG 3NE N/A         30  26  85  NE2     30.33S
#ELLENSBURG 1E  N/A         32  26  78  CALM    N/A
#KITTITAS 4N    N/A         37  27  67  CALM    28.64S
#KITTITAS 3S    N/A         28  25  88  CALM    30.38S
#THORP 6N       N/A         37  28  70  N5      30.39S
$$

WAZ027-061310-
YAKIMA VALLEY

CITY            SKY/WX      TMP DP  RH  WIND    PRES   REMARKS
SUNNYSIDE AP    MOCLDY      28  25  88  CALM    30.36S
YAKIMA AIRPORT  PTCLDY      31  26  81  NW6     30.36S
6HR MIN TEMP:   30; 6HR MAX TEMP:   39;

YAKIMA-VAGABOND MOCLDY      32  27  82  SW2     30.35S
#DONALD 2NE     N/A         40  23  50  CALM    29.19S
#NACHES 2SW     N/A         42  29  60  NW1     30.34S
#TERRACE HTS    N/A         33  28  82  CALM    30.36R
#WAPATO 4NE     N/A         40  23  50  CALM    29.20R
#WEST VALLEY    N/A         33  29  85  CALM    30.37S
#W YAKIMA       N/A         38  30  73  CALM    30.38S
#WHITE SWAN 5E  N/A         31  28  88  CALM    30.39S
#WILEY CITY 3W  N/A         32  26  78  CALM    30.36S
$$

WAZ028-061310-
LOWER COLUMBIA BASIN...WASHINGTON

CITY            SKY/WX      TMP DP  RH  WIND    PRES   REMARKS
PASCO           PTCLDY      26  23  88  N3      30.38F
6HR MIN TEMP:   26; 6HR MAX TEMP:   33;

PROSSER AWOS    N/A         30  27  88  N1      30.39F
RICHLAND AWOS   PTCLDY      28  27  96  CALM    30.38S
#BASIN CITY 5SW N/A         29  24  81  E1      30.37S
#BENTON CITY    N/A         34  28  78  CALM    30.29S
#CONNELL 5N     N/A         29  24  81  CALM    30.38S
#CONNELL 5NW    N/A         31  25  78  CALM    30.35S
#ELTOPIA        N/A         31  25  78  CALM    30.35S
#ELTOPIA 6NW    N/A         36  26  67  CALM    29.31S
#KAHLOTUS       N/A         28  24  85  S13     30.39S WCI 17
#KENNEWICK 3S   N/A         38  29  70  CALM    30.38S
#PATERSON       N/A         34  28  78  CALM    30.37S
#PROSSER DOT    N/A         31  28  88  S3      N/A
#PROSSER        N/A         38  27  64  CALM    30.37S
#SAGEMOOR 2W    N/A         28  23  81  S1      30.23F
#TOUCHET 2S     N/A         26  23  88  CALM    30.38S
#WEST PASCO     N/A         30  22  72  CALM    30.40S
$$

WAZ029-061310-
FOOTHILLS OF THE BLUES...WASHINGTON

CITY            SKY/WX      TMP DP  RH  WIND    PRES   REMARKS
WALLA WALLA AP  PTCLDY      38  26  62  CALM    30.35S
6HR MIN TEMP:   38; 6HR MAX TEMP:   44;

#DAYTON SCHOOL  N/A         34  17  49  N2      30.35F
#LOWDEN 2SE     N/A         26  24  92  E1      30.34F
#PLEASANT VIEW 1N/A         39  25  57  CALM    30.42S
#PRESCOTT       N/A         32  26  78  CALM    30.38S
#SUDBURY        N/A         31  N/A N/A CALM    N/A
#WHITMAN COLLEGEN/A         46  28  49  CALM    30.41S
#WAITSBURG 5S   N/A         46  26  45  CALM    30.46F
#WAITSBURG 8N   N/A         30  11  44  N1      30.24S
#WALLA WALLA 5E N/A         39  28  64  NE6     N/A
#WALLA WALLA U  N/A         34  27  75  CALM    30.38S
#WHITMAN MISSIONN/A         29  25  85  CALM    30.39F
$$

WAZ030-061310-
BLUE MOUNTAINS...WASHINGTON

CITY            SKY/WX      TMP DP  RH  WIND    PRES   REMARKS
#DIXIE 5SE      N/A         47  17  30  CALM    30.27F
#SKI BLUEWOOD   N/A         31  20  63  SW2     30.33F
$$

ORZ009-041-WAZ024-061310-
COLUMBIA RIVER GORGE

CITY            SKY/WX      TMP DP  RH  WIND    PRES   REMARKS
HOOD RIVER AP   PTCLDY      32  30  92  CALM    30.38S
THE DALLES AP   PTCLDY      34  30  85  CALM    30.38F
6HR MIN TEMP:   34; 6HR MAX TEMP:   44;

#ARLINGTON AIRPON/A         38  32  79  W3      30.00S
#ARLINGTON HS   N/A         36  31  82  SW2     30.31S
#CELILO DOT     N/A         39  30  70  CALM    N/A
#MARYHILL       N/A         40  33  76  CALM    N/A
#MOSIER 1S      N/A         36  27  69  CALM    30.35S
#MURDOCK        N/A         38  35  89  CALM    30.41S
#RUFUS DOT      N/A         38  32  79  S3      N/A

$$

ORZ510-061310-
NORTH CENTRAL OREGON

CITY            SKY/WX      TMP DP  RH  WIND    PRES   REMARKS
#CHENOWITH 1W   N/A         42  32  67  NW5     N/A
#COW CYN RST AREN/A         43  25  49  S3      N/A
#DUFUR 9E       N/A         48  29  47  SW1     30.40F
#GRASS VALLEY 1SN/A         37  28  70  SW3     30.37S
#KENT DOT       N/A         40  22  48  S7      N/A
#MAUPIN SCHOOL  N/A         35  28  75  CALM    30.38S
#MORO SCHOOL    N/A         33  30  89  SW2     30.34F
#SHANIKO 5WSW   N/A         40  15  36  S10     N/A
#SHANIKO 4NW    N/A         45  25  45  S5      30.34F
#TYGH VALLEY 2NEN/A         34  28  78  CALM    30.39S
#WAPANITIA AIRPON/A         33  27  78  CALM    30.40S
#WASCO DOT      N/A         30  28  92  E2      N/A
#WASCO 5NE      N/A         40  31  70  CALM    30.38S
$$

ORZ511-061310-
CENTRAL OREGON

CITY            SKY/WX      TMP DP  RH  WIND    PRES   REMARKS
BEND AIRPORT    PTCLDY      36  23  59  S5      30.36F
MADRAS AIRPORT  PTCLDY      32  27  82  S6      30.38S
PRINEVILLE AP   MOCLDY      25  21  84  CALM    30.37F
REDMOND AIRPORT PTCLDY      29  21  72  SE3     30.36F
6HR MIN TEMP:   24; 6HR MAX TEMP:   41;

#BEND 6E        N/A         33  19  56  CALM    30.35R
#BEND 1SW       N/A         33  26  75  W3      N/A
#BEND-AWBREY    N/A         39  25  57  SW8     30.38S
#BEND-KIM LN    N/A         36  25  64  SW7     30.34S
#CROOKED RVR RANN/A         34  25  69  CALM    30.39S
#CULVER         N/A         32  25  75  CALM    30.32F
#LAKE BILLY CHINN/A         36  18  47  CALM    30.44S
#POWELL BUTTE   N/A         35  22  59  S2      29.96F
#PRINEVILLE 3N  N/A         28  24  85  CALM    30.39S
#WARM SPRINGS   N/A         31  27  85  CALM    30.34S

$$


ORZ509-061310-
EAST SLOPES OF OREGON CASCADES

CITY            SKY/WX      TMP DP  RH  WIND    PRES   REMARKS
#BLUE BOX PASS  N/A         42  -9  11  CALM    N/A
#CAMP SHERMAN   N/A         25  20  81  CALM    30.43S
#LA PINE DOT    N/A         23  16  74  CALM    N/A
#LA PINE 4NW    N/A         21  15  77  CALM    30.51S
#LAVA BUTTE DOT N/A         26  22  85  CALM    N/A
#MT BACHELOR-MIDN/A         36  -13 11  SW6     N/A
#SISTERS AIRPOR N/A         24  21  88  CALM    30.17S
#SISTERS ODOT   N/A         25  N/A N/A CALM    N/A
#SISTERS 3N     N/A         24  11  57  CALM    30.37S
#SUNRIVER       N/A         25  21  84  CALM    30.34S
#TUMALO 3W      N/A         41  20  43  SW6     30.24F
#WANOGA BUTTE D N/A         41   6  23  SW1     N/A

$$

ORZ044-061310-
LOWER COLUMBIA BASIN...OREGON

CITY            SKY/WX      TMP DP  RH  WIND    PRES   REMARKS
HERMISTON       MOCLDY      31  26  81  S3      30.36S
6HR MIN TEMP:   26; 6HR MAX TEMP:   37;

#BOARDMAN 8SW   N/A         35  31  85  CALM    30.38S
#IONE SCHOOL    N/A         37  23  56  CALM    30.34S
#IRRIGON 4NW    N/A         30  28  92  SE3     N/A
#UMATILLA SCHOOLN/A         27  27  100 S1      30.47S
#UMATILLA       N/A         34  28  78  CALM    30.35S
$$

ORZ507-061310-
NORTHERN FOOTHILLS OF THE BLUES

CITY            SKY/WX      TMP DP  RH  WIND    PRES   REMARKS
PENDLETON AIRPT PTCLDY      36  25  64  E9      30.35S
6HR MIN TEMP:   35; 6HR MAX TEMP:   41;

#ADAMS 3WNW     N/A         28  24  85  CALM    30.40F
#ATHENA         N/A         41  27  57  CALM    30.40F
#CAYUSE         N/A         44  28  53  E14     30.37S WCI 37
#HELIX SCHOOL   N/A         27  23  85  CALM    30.40S
#HELIX 3N       N/A         39  26  59  SE8     30.29F
#HELIX 6SW      N/A         31  26  81  E2      30.34S
#HOLDMAN 5SE    N/A         35  29  78  CALM    30.34S
#HOLDMAN 6E     N/A         38  27  64  CALM    30.18F
#M-F FERNDALE   N/A         33  24  69  CALM    30.33F
#M-F GROVE ELEM N/A         43  24  47  NW1     30.32F
#M-FREEWATER 5SEN/A         44  27  51  CALM    30.33F
#PENDLETON DNTN N/A         30  17  58  CALM    30.37S
#PDT AQUATIC CTRN/A         32  17  53  E2      30.34F
#PENDLETON 5NE  N/A         31  25  78  CALM    30.30S
#PDT SUNRIDGE   N/A         29  25  85  CALM    30.38S
#PENDLETON 7NW  N/A         34  26  72  E1      27.48F
#PILOT ROCK     N/A         44  20  38  SE7     30.36R
#TUTUILLA       N/A         29  24  81  CALM    30.40S
#UMAPINE 2E     N/A         30  26  85  CALM    30.33F
#WESTON SCHOOL  N/A         48  20  33  SW5     30.33F

$$

ORZ508-061310-
SOUTHERN FOOTHILLS OF THE BLUES

CITY            SKY/WX      TMP DP  RH  WIND    PRES   REMARKS
LEXINGTON       MOCLDY      43  28  55  SE12    30.35S WCI 37
#AJAX           N/A         43  23  45  SE5     30.25F
#CONDON SCHOOL  N/A         39  25  57  CALM    30.28S
#CONDON 5W      N/A         47  23  38  SW7     30.31S
#FOSSIL SCHOOL  N/A         33  26  75  CALM    30.31S
#HEPPNER EOC    N/A         41  25  53  SE9     30.33F
#HEPPNER 4NE    N/A         44  25  47  S1      30.35F
#LEXINGTON 2SE  N/A         42  27  55  SE8     30.30F
#MIKKALO        N/A         39  26  59  NE5     30.33S
#OLEX 4N        N/A         38  31  76  SW5     30.33S
#RUGGS 5NE      N/A         39  22  50  SW2     30.46F
#RUGGS 2SW      N/A         45  23  41  SW14    30.38F WCI 39

$$

ORZ502-503-061310-
BLUE MOUNTAINS

CITY            SKY/WX      TMP DP  RH  WIND    PRES   REMARKS
MEACHAM         CLEAR       22  19  88  CALM    30.36F
6HR MIN TEMP:   22; 6HR MAX TEMP:   27;

#BATTLE MTN DOT N/A         32  27  82  S5      N/A
#HEPPNER 15SE   N/A         33  22  63  CALM    30.28S
#LADD CYN SMT   N/A         28  18  66  SE9     N/A
#LADD CREEK ODOTN/A         29  11  46  SW3     N/A
#LONG CREEK HS  N/A         32  26  78  CALM    30.34S
#N POWDER DOT   N/A         22  21  96  CALM    N/A
#PIKES PEAK     N/A         47  19  32  SW16    27.99S WCI 41
#TROY SCHOOL    N/A         28  24  85  CALM    30.33S
#UKIAH          N/A         24  22  92  CALM    30.56F
#WESTON 4E      N/A         42  22  45  SE6     30.32F
$$

ORZ505-061310-
JOHN DAY BASIN

CITY            SKY/WX      TMP DP  RH  WIND    PRES   REMARKS
JOHN DAY        PTCLDY      35  23  61  SE9     30.40S
#JOHN DAY KJDY  N/A         29  28  96  NE1     30.63R
#DAYVILLE SCHOOLN/A         29  23  78  CALM    30.37S
#MONUMENT HS    N/A         27  22  81  CALM    30.40S
#MT. VERNON 5SE N/A         35  23  61  CALM    30.34S
#SPRAY SCHOOL   N/A         28  N/A N/A CALM    N/A
#WINLOCK        N/A         34  23  64  CALM    30.43S
$$

ORZ506-061310-
OCHOCO AND JOHN DAY HIGHLANDS

CITY            SKY/WX      TMP DP  RH  WIND    PRES   REMARKS
#BUCK CREEK DOT N/A         41  41  100 CALM    N/A
#HORSE RIDGE DO N/A         21  16  81  CALM    N/A
#KEYES SMT DOT  N/A         35  20  54  CALM    N/A
#PAULINA SCHOOL N/A         24  20  84  CALM    30.32S
#PRAIRIE CITY   N/A         21  16  81  CALM    30.66S
#SENECA         N/A         20  N/A N/A CALM    N/A
#SENECA 9NW     N/A         20  17  88  CALM    30.53S
$$

ORZ049-061310-
GRANDE RONDE VALLEY

CITY            SKY/WX      TMP DP  RH  WIND    PRES   REMARKS
LA GRANDE       CLEAR       27  16  63  W3      30.39R
#COVE           N/A         28  22  78  CALM    30.38R
#COVE SCHOOL    N/A         30  23  75  CALM    30.34R
#ELGIN 3N       N/A         22  13  68  CALM    30.35S
#ELGIN 1E       N/A         26  20  78  CALM    N/A
#IMBLER SCHOOL  N/A         27  20  74  CALM    30.33R
#ISLAND CITY 4N N/A         37  35  92  CALM    30.37S
#LADD CYN DOT   N/A         32  16  51  CALM    N/A
#UNION 1S       N/A         34  23  64  SW2     30.36R
$$

ORZ050-061310-
WALLOWA COUNTY

CITY            SKY/WX      TMP DP  RH  WIND    PRES   REMARKS
#ENTERPRISE HS  N/A         24  20  84  CALM    30.36S
#IMNAHA SCHOOL  N/A         32  24  72  S2      30.40S
#IMNAHA 10S     N/A         34  21  58  SW3     30.36S
#JOSEPH 3N      N/A         22  16  77  CALM    30.35S
#JOSEPH 3W      N/A         34  13  41  SW2     30.16S
#LOSTINE        N/A         23  19  84  CALM    30.29F
#MT HOWARD 8000 N/A         33  13  43  W2      30.37S
#PROMISE 1S     N/A         31  21  66  CALM    30.51R
#SHEEP RDG 7000 N/A         37   8  29  CALM    30.40F
#WALLOWA SCHOOL N/A         21  18  88  CALM    31.50S



$$



USA.gov is the U.S. government's official web portal to all federal, state and local government web resources and services.